Terminal Aerodrome Forecast
Issued by NWS Cleveland, OH

Home | Current Version | Previous Version | Graphics & Text | Print | Product List | Glossary On
Versions: 1 2 3 4 5 6 7 8 9 10 11 12 13 14 15 16 17 18 19 20 21 22 23 24 25
000
FTUS41 KCLE 152300
TAFERI
TAF
KERI 152340Z 1600/1624 VRB04KT 5SM BR BKN014
     FM160300 14006KT 6SM BR SCT015 BKN200
     FM160900 15008KT 5SM -RA BR OVC040
     FM161300 16010KT 4SM -RA BR BKN018 OVC040=

USA.gov is the U.S. government's official web portal to all federal, state and local government web resources and services.